Volver al catálogo

NAVSTAR 36

USA 100

ActivoNavegaciónMEO
NORAD 23027·PAYLOAD·🇺🇸 United States

Lanzado Mar 10, 1994 desde Cape Canaveral Space Force Station

Loading…

Próximos Pases (próximas 24 horas)

TLE

ActualizadoSource: Space-Track

Época: Sep 13, 2026, 14:58 UTC

1 23027U 94016A   26256.62412069 -.00000023  00000-0  00000-0 0  9991
2 23027  53.0333 270.8262 0035148 221.9898 315.8050  1.86675094234872

Sigue NAVSTAR 36 en tiempo real con AllMySat

Download on the App Store